Location: Unspecified
(15.4703°N, 0.0000°E)
Time: 02:04:35
(UTC+00:00)

Courier 1B Rocket - Visible Passes

Search period start: 04 April 2026 00:00
Search period end: 14 April 2026 00:00
Orbit: 920 x 1201 km, 28.2° (Epoch: 28 March)

Date Brightness Start Highest point End Pass type
(mag) Time Alt. Az. Time Alt. Az. Time Alt. Az.
4 Apr 6.4 04:01:42 22° NNW 04:04:26 30° NNE 04:10:16 10° ENE visible
4 Apr 7.0 19:25:40 10° SSE 19:27:03 11° SSE 19:27:03 11° SSE visible
5 Apr 6.8 03:04:20 24° NNE 03:04:20 24° NNE 03:08:13 10° ENE visible
5 Apr 5.9 04:50:52 10° NW 04:57:05 47° NNE 05:03:42 10° E visible
5 Apr 6.7 20:14:00 10° SSW 20:16:33 20° SSW 20:16:33 20° SSW visible
6 Apr 6.1 03:53:23 28° NNW 03:55:37 36° NNE 04:01:42 10° E visible
6 Apr 6.4 19:13:39 10° SSW 19:18:25 19° SSE 19:19:45 18° SE visible
6 Apr 7.3 21:05:10 10° SW 21:06:08 14° SW 21:06:08 14° SW visible
7 Apr 6.8 02:56:10 25° NE 02:56:10 25° NE 02:59:40 10° ENE visible
7 Apr 5.4 04:42:32 14° WNW 04:48:05 64° NNE 04:54:51 10° ESE visible
7 Apr 5.6 20:04:02 10° SW 20:09:22 41° S 20:09:22 41° S visible
8 Apr 5.7 03:45:22 41° NNW 03:46:43 46° NNE 03:53:02 10° E visible
8 Apr 6.0 19:03:10 10° SSW 19:09:17 31° SSE 19:12:37 21° ESE visible
8 Apr 6.6 20:55:54 10° WSW 20:59:02 29° WSW 20:59:02 29° WSW visible
9 Apr 6.9 02:48:18 24° ENE 02:48:18 24° ENE 02:51:08 10° E visible
9 Apr 4.9 04:34:40 22° WNW 04:39:02 90° NNE 04:45:47 10° ESE visible
9 Apr 4.9 19:54:25 10° SW 20:01:27 70° SSE 20:02:17 63° ESE visible
10 Apr 5.1 03:37:42 64° NNE 03:37:45 64° NNE 03:44:14 10° ESE visible
10 Apr 5.6 05:25:13 10° W 05:31:10 41° SSW 05:37:29 10° SE visible
10 Apr 5.5 18:53:11 10° SW 19:00:08 48° SSE 19:05:32 15° E visible
10 Apr 5.9 20:46:52 10° WSW 20:51:56 46° WNW 20:51:56 46° WNW visible
11 Apr 7.1 02:40:47 19° E 02:40:47 19° E 02:42:31 10° E visible
11 Apr 5.0 04:27:11 33° W 04:29:56 61° SSW 04:36:27 10° SE visible
11 Apr 5.1 19:45:07 10° WSW 19:52:20 82° NNW 19:55:08 39° ENE visible
11 Apr 7.4 21:40:07 10° W 21:41:32 16° WNW 21:41:32 16° WNW visible
12 Apr 5.4 03:30:21 53° ESE 03:30:21 53° ESE 03:35:12 10° ESE visible
12 Apr 6.1 05:16:55 10° W 05:22:02 26° SSW 05:27:25 10° SSE visible
12 Apr 5.2 18:43:34 10° SW 18:50:57 72° SSE 18:57:47 10° ENE visible
12 Apr 5.9 20:38:02 10° W 20:44:40 45° NNW 20:44:40 45° NNW visible
13 Apr 7.5 02:33:32 11° ESE 02:33:32 11° ESE 02:33:45 10° ESE visible
13 Apr 5.4 04:19:57 37° SW 04:20:49 39° SSW 04:26:49 10° SE visible
13 Apr 5.6 19:36:03 10° WSW 19:43:14 60° NNW 19:47:43 22° NE visible
13 Apr 7.2 21:31:31 10° WNW 21:34:07 20° NW 21:34:07 20° NW visible
